Weather Roundup
Issued by NWS

Home | Current Version | Previous Version | Text Only | Print | Product List | Glossary On
Versions: 1 2 3 4 5 6 7 8 9 10 11 12 13 14 15 16 17 18 19 20 21 22 23 24 25 26 27 28 29 30 31 32 33 34 35 36 37 38 39 40 41 42 43 44 45 46 47 48 49 50
229
NZUS93 KARX 260410
HRRWXR

CURRENT HOURLY OBSERVATIONS ACROSS
MUCH OF THE UPPER MISSISSIPPI VALLEY
NATIONAL WEATHER SERVICE LA CROSSE WI
1100 PM CDT THU MAY 25 2017


...SOUTHEAST MINNESOTA...


CITY           SKY/WX    TMP DP  RH WIND       PRES   REMARKS
ROCHESTER      LGT RAIN  59  57  93 CALM      29.75R
ROCHESTER/MAYO CLOUDY    61  55  83 S5        29.74R
WINONA         CLOUDY    59  52  77 CALM      29.71F
AUSTIN         CLOUDY    61  55  82 CALM      29.72S
ALBERT LEA     CLOUDY    61  57  88 CALM      29.71F
DODGE CENTER   MOCLDY    59  54  82 S5        29.73S
PRESTON        LGT RAIN  59  54  84 S6        29.75R
OWATONNA       MOCLDY    61  54  77 SE6       29.71F
FARIBAULT      CLOUDY    63  54  72 SE8       29.71S
$$

...ELSEWHERE IN MINNESOTA...


CITY           SKY/WX    TMP DP  RH WIND       PRES   REMARKS
MINNEAPOLIS    LGT RAIN  65  54  67 SW5       29.71R
INTNL FALLS    CLOUDY    61  47  59 SE7       29.66R
DULUTH         CLOUDY    54  44  69 SE7       29.72R
RED WING       CLOUDY    63  52  67 CALM      29.70R
REDWOOD FALLS  PTCLDY    61  50  67 SE12      29.65R
MANKATO        CLOUDY    62  52  69 SE13      29.68S
WORTHINGTON    CLEAR     60  52  74 SE8       29.66R
FAIRMONT       PTCLDY    59  52  77 SE12      29.69R
$$

...SOUTHWEST WISCONSIN...


CITY           SKY/WX    TMP DP  RH WIND       PRES   REMARKS
LA CROSSE      CLOUDY    62  57  83 SE5       29.71S
PRAIRIE DU CHI MOCLDY    61  52  73 CALM      29.72S
BOSCOBEL       MOCLDY    56  54  93 CALM      29.73F
LONE ROCK      CLEAR     56  53  90 E6        29.74S
PLATTEVILLE    CLEAR     61  57  86 SE6       29.75S
FORT MC COY    PTCLDY    52  52  98 CALM      29.74S
CAMP DOUGLAS   CLOUDY    55  53  95 E5        29.73S
MAUSTON-NEW LI CLOUDY    58  56  92 CALM      29.74S
VIROQUA        FAIR      61  52  71 MISG      29.74F
WIS DELLS      PTCLDY    56  51  84 SE3       29.75S
$$

...ELSEWHERE IN WISCONSIN...


CITY           SKY/WX    TMP DP  RH WIND       PRES   REMARKS
MILWAUKEE      CLEAR     55  51  86 CALM      29.76R
MADISON        PTCLDY    55  51  86 CALM      29.76R
GREEN BAY      CLEAR     57  53  86 E6        29.78R
EAU CLAIRE     CLOUDY    58  51  78 CALM      29.70F
BLACK RVR FLS  FAIR      53  53 100 CALM      29.73R FOG
MEDFORD        PTCLDY    56  51  81 SE3       29.74S
WAUSAU         CLOUDY    61  52  72 S6        29.74R
WIS RAPIDS     CLOUDY    57  51  80 SE5       29.76R
MARSHFIELD     CLOUDY    59  50  72 CALM      29.74R
RICE LAKE      CLOUDY    59  53  80 CALM      29.73R
$$

...NORTHEAST IOWA...


CITY           SKY/WX    TMP DP  RH WIND       PRES   REMARKS
WATERLOO       CLOUDY    65  50  58 CALM      29.73R
DUBUQUE        MOCLDY    61  53  75 SE8       29.75S
DECORAH        CLOUDY    63  54  72 VRB3G12   29.71R
MASON CITY     CLOUDY    55  52  89 SE5       29.74R
CHARLES CITY   MOCLDY    63  52  67 S6        29.74S
OELWEIN        CLOUDY    63  52  67 S6        29.75R
$$

...ELSEWHERE IN IOWA...


CITY           SKY/WX    TMP DP  RH WIND       PRES   REMARKS
DES MOINES     CLOUDY    66  52  60 S3        29.72R
IOWA CITY      MOCLDY    64  53  67 SW6       29.73R
FORT DODGE     PTCLDY    59  52  77 SE7       29.72S
MARSHALLTOWN   MOCLDY    62  52  69 CALM      29.73R
CEDAR RAPIDS   CLOUDY    62  52  69 S3        29.73R
$$

...NORTHERN ILLINOIS...


CITY           SKY/WX    TMP DP  RH WIND       PRES   REMARKS
CHICAGO-OHARE  PTCLDY    53  49  86 CALM      29.77R
CHICAGO-MIDWAY PTCLDY    58  51  78 N3        29.77R
MOLINE         PTCLDY    58  52  80 E5        29.75R
ROCKFORD       CLOUDY    57  54  89 CALM      29.78R
PEORIA         CLOUDY    60  57  89 CALM      29.78R
$$

NOTE: "FAIR" INDICATES FEW OR NO CLOUDS BELOW 12,000 FEET WITH NO
SIGNIFICANT WEATHER AND/OR OBSTRUCTIONS TO VISIBILITY. WIND
SPEEDS ARE IN MILES-PER-HOUR.




USA.gov is the U.S. government's official web portal to all federal, state and local government web resources and services.